Location: Newark
(33.4453°N, 112.0669°W)
Time: 17:34:08
(UTC+00:00)

Courier 1B Rocket - Visible Passes

Search period start: 19 February 2020 00:00
Search period end: 29 February 2020 00:00
Orbit: 920 x 1202 km, 28.2° (Epoch: 17 February)

Date Brightness Start Highest point End Pass type
(mag) Time Alt. Az. Time Alt. Az. Time Alt. Az.
19 Feb 5.8 11:26:24 48° SE 11:26:24 48° SE 11:32:04 10° ESE visible
19 Feb 6.1 13:12:46 14° WSW 13:18:15 38° SSW 13:25:07 10° SE visible
20 Feb 7.3 10:29:11 18° ESE 10:29:11 18° ESE 10:30:48 10° ESE visible
20 Feb 5.6 12:15:33 39° SW 12:17:12 45° SSW 12:24:08 10° ESE visible
21 Feb 6.1 11:18:22 38° SE 11:18:22 38° SE 11:23:02 10° ESE visible
21 Feb 6.3 13:04:44 15° WSW 13:09:19 30° SSW 13:15:33 10° SE visible
22 Feb 7.6 10:21:12 13° ESE 10:21:12 13° ESE 10:21:53 10° ESE visible
22 Feb 5.8 12:07:35 35° SSW 12:08:19 36° SSW 12:14:50 10° SE visible
23 Feb 6.6 11:10:28 27° SE 11:10:28 27° SE 11:13:55 10° SE visible
23 Feb 6.6 12:56:50 15° WSW 13:00:22 21° SSW 13:05:37 10° SSE visible
24 Feb 6.2 11:59:46 28° SSW 11:59:46 28° SSW 12:05:16 10° SE visible
25 Feb 7.0 11:02:44 18° SE 11:02:44 18° SE 11:04:37 10° SE visible
25 Feb 6.8 12:49:07 12° SW 12:51:24 14° SSW 12:54:56 10° S visible
26 Feb 6.7 11:52:07 18° S 11:52:07 18° S 11:55:16 10° SSE visible
27 Feb 7.0 03:15:05 10° S 03:16:24 12° SSE 03:16:24 12° SSE visible
28 Feb 7.0 04:04:34 10° SSW 04:05:53 15° SSW 04:05:53 15° SSW visible
